Weather History for Florala, AL

Change the Weather History Date:

Wednesday, February 13, 2013

  Actual Average (KCEW) Record (KCEW)
Temperature  
Mean Temperature 58 °F -  
Max Temperature 70 °F 64 °F 79 °F (1952)
Min Temperature 45 °F 42 °F 21 °F (2012)
Degree Days  
Heating Degree Days 7    
Growing Degree Days 8 (Base 50)    
Moisture  
Dew Point 54 °F    
Average Humidity 88    
Maximum Humidity 94    
Minimum Humidity 67    
Precipitation  
Precipitation 0.16 in - - ()
Sea Level Pressure  
Sea Level Pressure 29.81 in    
Wind  
Wind Speed 5 mph (WSW)    
Max Wind Speed 8 mph    
Max Gust Speed 20 mph    
Visibility 8 miles    
Events Rain    
Averages and records for this station are not official NWS values.
T = Trace of Precipitation, MM = Missing Value Source: NWS Daily Summary

Daily Weather History Graph

Daily Weather History Graph

Search for Another Location

Airport:

Trip Planner

Search our weather history database for the weather conditions in past years. The results will help you decide how hot, cold, wet, or windy it might be!

Date:

Astronomy

Feb. 13, 2013 Rise Set
Actual Time 6:27 AM CST 5:31 PM CST
Civil Twilight 6:03 AM CST 5:56 PM CST
Nautical Twilight 5:34 AM CST 6:24 PM CST
Astronomical Twilight 5:06 AM CST 6:52 PM CST
Moon 8:15 AM CST (2/13) 9:13 PM CST (2/13)
Length of Visible Light 11h 53m
Length of Day
11h 03m
Waxing Crescent, 14% of the Moon is Illuminated
Feb 13
Waxing Crescent
Feb 17
First Quarter
Feb 25
Full
Mar 4
Last Quarter
Mar 11
New

Hourly Weather History & Observations

Time (CST) Temp. Dew Point Humidity Pressure Visibility Wind Dir Wind Speed Gust Speed Precip Events Conditions
12:50 AM 69.8 °F 66.2 °F 88% 29.82 in 7.0 mi SW 5.8 mph - 0.00 in   Overcast
12:58 AM 70.0 °F 66.9 °F 90% 29.81 in 7.0 mi SW 5.8 mph - 0.00 in   Overcast
1:30 AM 69.8 °F 66.2 °F 88% 29.82 in 7.0 mi WSW 3.5 mph - N/A   Overcast
1:58 AM 69.1 °F 66.9 °F 93% 29.80 in 7.0 mi SW 6.9 mph - N/A   Mostly Cloudy
2:58 AM 69.1 °F 66.0 °F 90% 29.78 in 6.0 mi SW 3.5 mph - N/A   Mostly Cloudy
3:37 AM 68.0 °F 66.2 °F 94% 29.78 in 6.0 mi Variable 5.8 mph - N/A   Mostly Cloudy
3:44 AM 68.0 °F 66.2 °F 94% 29.79 in 6.0 mi SW 5.8 mph - N/A   Overcast
3:51 AM 69.8 °F 66.2 °F 88% 29.79 in 7.0 mi SW 6.9 mph - N/A   Mostly Cloudy
3:54 AM 69.8 °F 66.2 °F 88% 29.79 in 7.0 mi SW 4.6 mph - N/A   Overcast
3:58 AM 68.0 °F 64.9 °F 90% 29.78 in 7.0 mi SW 5.8 mph - N/A   Mostly Cloudy
4:05 AM 68.0 °F 64.4 °F 88% 29.80 in 7.0 mi SW 8.1 mph - N/A   Mostly Cloudy
4:37 AM 68.0 °F 64.4 °F 88% 29.81 in 6.0 mi Variable 5.8 mph - N/A   Overcast
4:46 AM 64.4 °F 62.6 °F 94% 29.82 in 6.0 mi Variable 6.9 mph - N/A   Overcast
4:52 AM 64.4 °F 62.6 °F 94% 29.82 in 7.0 mi Variable 4.6 mph - N/A   Overcast
4:58 AM 64.0 °F 61.0 °F 90% 29.82 in 7.0 mi WNW 8.1 mph - N/A   Overcast
5:11 AM 62.6 °F 60.8 °F 94% 29.83 in 10.0 mi Variable 5.8 mph - N/A   Overcast
5:35 AM 62.6 °F 57.2 °F 82% 29.81 in 10.0 mi Calm Calm - N/A   Scattered Clouds
5:58 AM 60.1 °F 55.0 °F 83% 29.80 in 10.0 mi Variable 3.5 mph - N/A   Clear
6:58 AM 57.0 °F 54.0 °F 89% 29.77 in 10.0 mi Calm Calm - N/A   Clear
7:58 AM 59.0 °F 51.1 °F 75% 29.84 in 10.0 mi Variable 6.9 mph - N/A   Scattered Clouds
8:58 AM 60.1 °F 50.0 °F 69% 29.88 in 10.0 mi NW 8.1 mph - N/A   Clear
9:58 AM 60.1 °F 48.9 °F 67% 29.88 in 10.0 mi Variable 4.6 mph - N/A   Partly Cloudy
10:58 AM 57.9 °F 48.0 °F 70% 29.91 in 10.0 mi Variable 4.6 mph - N/A   Clear
11:58 AM 57.0 °F 48.0 °F 72% 29.88 in 10.0 mi Variable 5.8 mph - N/A   Overcast
12:58 PM 54.0 °F 48.0 °F 80% 29.86 in 10.0 mi Variable 3.5 mph - 0.00 in Rain Light Rain
1:58 PM 53.1 °F 48.0 °F 83% 29.83 in 10.0 mi Variable 3.5 mph - 0.00 in   Overcast
2:33 PM 51.8 °F 50.0 °F 94% 29.85 in 4.0 mi Calm Calm - 0.02 in Rain Rain
2:51 PM 51.8 °F 48.2 °F 88% 29.85 in 10.0 mi Variable 3.5 mph - 0.02 in Rain Light Rain
2:57 PM 52.0 °F 48.9 °F 89% 29.83 in 8.0 mi Variable 4.6 mph - 0.02 in Rain Light Rain
3:32 PM 48.2 °F 46.4 °F 93% 29.79 in 6.0 mi Variable 4.6 mph 19.6 mph 0.03 in Rain Rain
3:38 PM 48.2 °F 46.4 °F 93% 29.77 in 5.0 mi Variable 4.6 mph - 0.04 in Rain Rain
3:43 PM 48.2 °F 46.4 °F 93% 29.75 in 6.0 mi Variable 5.8 mph - 0.04 in Rain Rain
3:58 PM 48.0 °F 45.0 °F 89% 29.73 in 7.0 mi Variable 4.6 mph - 0.06 in Rain Rain
4:15 PM 48.2 °F 44.6 °F 87% 29.71 in 5.0 mi Variable 5.8 mph - 0.03 in Rain Rain
4:58 PM 48.0 °F 46.0 °F 93% - 10.0 mi North 3.5 mph - 0.08 in Rain Light Rain
5:19 PM 48.2 °F 46.4 °F 93% - 10.0 mi Calm Calm - 0.00 in   Mostly Cloudy
5:58 PM 48.0 °F 46.0 °F 93% - 10.0 mi Variable 3.5 mph - 0.00 in   Partly Cloudy
6:58 PM 48.0 °F 45.0 °F 89% - 10.0 mi Calm Calm - N/A   Clear
7:58 PM 48.0 °F 45.0 °F 89% - 10.0 mi Calm Calm - N/A   Clear
8:58 PM 48.0 °F 45.0 °F 89% - 10.0 mi Calm Calm - N/A   Clear
9:58 PM 46.9 °F 45.0 °F 93% - 10.0 mi Calm Calm - N/A   Clear
10:58 PM 46.9 °F 44.1 °F 90% - 10.0 mi Calm Calm - N/A   Scattered Clouds
11:58 PM 45.0 °F 42.1 °F 90% - 10.0 mi Calm Calm - N/A   Clear